Home > Weather > Cincinnati > Past weeks

Flag for USA Past Weather in Cincinnati, Ohio, USA — Yesterday and Last 2 Weeks

Now
64 °F

Clear.


Feels Like: 64 °F
Forecast: 65 / 87 °F
Wind: 3 mph from Northeast

Location: Cincinnati Municipal Airport Lunken Field

Current Time: Aug 24, 2016 at 6:38:46 AM

Latest Report: Aug 24, 2016 at 5:53 AM


Visibility: 10 mi

Pressure: 30.18 "Hg

Humidity: 100%

Dew Point: 64 °F

Location of CincinnatiLocation

Past Weather in Cincinnati — Graph

°F

Cincinnati Temperature Yesterday

Maximum temperature yesterday: 81 °F (at 3:53 PM)
Minimum temperature yesterday: 57 °F (at 6:53 AM)
Average temperature yesterday: 69 °F

High & Low Weather Summary for the Past Weeks

 TemperatureHumidityPressure
High90 °F (Aug 10, 3:53 PM)100% (Aug 9, 4:53 AM)30.30 "Hg (Aug 9, 4:53 AM)
Low57 °F (Aug 22, 5:56 AM)45% (Aug 22, 4:53 PM)29.72 "Hg (Aug 20, 5:53 PM)
Average75 °F87%30.03 "Hg
* Reported Aug 9 4:53 AM — Aug 24 4:53 AM, Cincinnati, Weather by CustomWeather, © 2016

Note: Actual official high and low records may vary slightly from our data, if they occured in-between our weather recording intervals... More about our weather records

Advertising

Cincinnati Weather History for the Previous 24 Hours

Scroll right to see more
 ConditionsComfort  
Time TempWeatherWind HumidityBarometerVisibility
4:53 AM
Wed, Aug 24
64 °FClear.No wind100%30.19 "Hg10 mi
3:53 AM64 °FClear.No wind100%30.17 "Hg9 mi
2:53 AM64 °FClear.No wind100%30.19 "Hg10 mi
1:53 AM64 °FClear.No wind100%30.20 "Hg10 mi
12:53 AM64 °FClear.No wind100%30.20 "Hg10 mi
11:53 PM
Tue, Aug 23
64 °FClear.No wind100%30.20 "Hg10 mi
10:53 PM66 °FClear.No wind93%30.20 "Hg10 mi
9:53 PM66 °FClear.No wind93%30.22 "Hg10 mi
8:53 PM70 °FSunny.No wind84%30.21 "Hg10 mi
7:53 PM73 °FSunny.3 mph81%30.21 "Hg10 mi
6:53 PM78 °FSunny.3 mph58%30.21 "Hg10 mi
5:53 PM81 °FPassing clouds.8 mph51%30.20 "Hg10 mi
4:53 PM81 °FPassing clouds.6 mph51%30.22 "Hg10 mi
3:53 PM81 °FPassing clouds.7 mph51%30.22 "Hg10 mi
2:53 PM80 °FPassing clouds.5 mph51%30.24 "Hg10 mi
1:53 PM79 °FScattered clouds.6 mph54%30.26 "Hg10 mi
12:53 PM79 °FScattered clouds.3 mph52%30.27 "Hg10 mi
11:53 AM77 °FSunny.8 mph58%30.29 "Hg10 mi
10:53 AM74 °FSunny.No wind67%30.30 "Hg10 mi
9:53 AM70 °FSunny.3 mph81%30.30 "Hg10 mi
8:53 AM64 °FSunny.No wind94%30.29 "Hg10 mi
7:53 AM59 °FPassing clouds.No wind100%30.28 "Hg10 mi
6:53 AM57 °FPassing clouds.No wind100%30.28 "Hg10 mi
Weather by CustomWeather, © 2016

See weather overviewHow to use our weather pages